EW1714 Weather Reports


Display with metric or nautical units.
time (UTC)temp
F
wind
direction
speed
MPH
gust
MPH
rain 1hr
in
rain 24hr
in
rain mn
in
humidity
%
barometer
mb
20260510224003 63 181 2.0 6.0 0.03 0.09 0.05 80 1012.7
20260510223506 63 210 1.0 10.0 0.03 0.09 0.05 79 1012.8
20260510223003 64 176 2.0 10.0 0.02 0.08 0.04 77 1012.7
20260510222504 65 205 3.0 9.0 0.01 0.07 0.03 76 1012.6
20260510222003 66 181 1.0 8.0 0.01 0.08 0.03 75 1012.3
20260510221506 66 165 2.0 7.0 0.00 0.07 0.02 74 1012.1
20260510221003 66 200 1.0 6.0 0.00 0.07 0.02 73 1011.8
20260510220505 67 146 1.0 4.0 0.00 0.07 0.02 74 1011.4
20260510220006 67 159 0.0 2.0 0.00 0.07 0.02 73 1011.2
20260510215501 67 183 0.0 6.0 0.00 0.07 0.02 73 1011.2
20260510215003 67 173 1.0 6.0 0.00 0.07 0.02 72 1011.1
20260510214502 67 179 0.0 6.0 0.00 0.08 0.02 72 1011.1
20260510214003 67 184 0.0 6.0 0.00 0.08 0.02 73 1011.1
20260510213508 66 173 1.0 6.0 0.02 0.08 0.02 72 1011.1
20260510213004 66 162 0.0 5.0 0.02 0.08 0.02 74 1011.1
20260510212503 66 159 1.0 5.0 0.02 0.08 0.02 74 1011.1
20260510212006 66 160 0.0 6.0 0.02 0.08 0.02 76 1011.3
20260510211515 65 224 1.0 6.0 0.02 0.08 0.02 76 1011.5
20260510211005 65 182 0.0 5.0 0.02 0.09 0.02 78 1011.4
20260510210505 65 195 0.0 2.0 0.02 0.09 0.02 78 1011.4
20260510210006 66 150 0.0 4.0 0.02 0.10 0.02 78 1011.3
20260510205504 66 165 0.0 4.0 0.02 0.10 0.02 77 1011.4
20260510205004 67 176 0.0 2.0 0.02 0.11 0.02 77 1011.3
20260510204511 68 160 0.0 3.0 0.02 0.11 0.02 77 1011.3
20260510204003 68 153 0.0 5.0 0.02 0.11 0.02 73 1011.6
20260510203504 69 175 0.0 6.0 0.00 0.10 0.00 69 1011.6
20260510203008 70 184 1.0 18.0 0.00 0.11 0.00 64 1011.1
20260510202503 71 212 1.0 18.0 0.00 0.11 0.00 60 1010.9
20260510202004 73 187 5.0 12.0 0.00 0.11 0.00 57 1010.8
20260510201508 73 159 3.0 12.0 0.00 0.11 0.00 55 1010.8
20260510201004 74 183 3.0 10.0 0.00 0.11 0.00 53 1010.8
20260510200504 75 174 2.0 12.0 0.00 0.11 0.00 53 1010.8
20260510200008 75 198 1.0 12.0 0.00 0.11 0.00 54 1010.8
20260510195503 75 215 4.0 10.0 0.00 0.11 0.00 51 1010.8
20260510195009 76 179 3.0 10.0 0.00 0.11 0.00 52 1010.7
20260510194510 76 186 1.0 10.0 0.00 0.11 0.00 51 1010.7
20260510194002 77 193 1.0 7.0 0.00 0.11 0.00 49 1010.9
20260510193504 78 167 1.0 8.0 0.00 0.11 0.00 50 1010.8
20260510193010 78 207 3.0 8.0 0.00 0.11 0.00 49 1010.9
20260510192503 78 200 2.0 11.0 0.00 0.11 0.00 51 1011.0
20260510192003 77 174 1.0 11.0 0.00 0.11 0.00 52 1011.0
20260510191511 77 220 1.0 11.0 0.00 0.11 0.00 51 1011.1
20260510191004 76 122 1.0 11.0 0.00 0.11 0.00 52 1011.1
20260510190502 76 210 5.0 11.0 0.00 0.11 0.00 52 1011.1
20260510190032 75 173 3.0 11.0 0.00 0.11 0.00 53 1011.0
20260510185504 75 199 1.0 11.0 0.00 0.11 0.00 56 1011.1
20260510185003 74 203 1.0 11.0 0.00 0.11 0.00 56 1011.1
20260510184512 74 167 4.0 8.0 0.00 0.11 0.00 56 1011.0
20260510184005 73 191 0.0 9.0 0.00 0.11 0.00 58 1011.1
20260510183505 74 161 0.0 9.0 0.00 0.11 0.00 56 1011.1
20260510183015 75 153 3.0 10.0 0.00 0.11 0.00 54 1011.1
20260510182504 76 193 4.0 10.0 0.00 0.11 0.00 52 1011.3
20260510182004 76 148 1.0 9.0 0.00 0.11 0.00 53 1011.2
20260510181512 77 147 3.0 9.0 0.00 0.11 0.00 52 1011.3
20260510181003 76 195 0.0 10.0 0.00 0.11 0.00 52 1011.3
20260510180506 76 220 3.0 10.0 0.00 0.11 0.00 52 1011.5
20260510180018 75 209 2.0 8.0 0.00 0.12 0.00 56 1011.3
20260510175504 75 186 3.0 11.0 0.00 0.12 0.00 55 1011.5
20260510175004 75 164 0.0 15.0 0.00 0.12 0.00 56 1011.5
20260510174515 75 110 1.0 15.0 0.00 0.12 0.00 56 1011.6
20260510174004 75 229 2.0 10.0 0.00 0.12 0.00 56 1011.7
20260510173504 75 204 3.0 10.0 0.00 0.12 0.00 57 1011.7
20260510173014 75 173 1.0 11.0 0.00 0.12 0.00 57 1011.7
20260510172506 75 191 1.0 11.0 0.00 0.12 0.00 57 1011.9
20260510172007 75 255 2.0 7.0 0.00 0.12 0.00 58 1011.9
20260510171515 75 145 0.0 9.0 0.00 0.12 0.00 59 1012.0
20260510171003 74 146 1.0 9.0 0.00 0.12 0.00 59 1012.1
20260510170504 74 117 1.0 5.0 0.00 0.13 0.00 59 1012.1
20260510170016 74 258 0.0 7.0 0.00 0.13 0.00 59 1012.1
20260510165505 74 200 2.0 7.0 0.00 0.13 0.00 57 1012.3
20260510165005 74 147 0.0 6.0 0.00 0.13 0.00 58 1012.2
20260510164517 74 135 0.0 8.0 0.00 0.13 0.00 61 1012.2
20260510164004 74 150 0.0 8.0 0.00 0.14 0.00 57 1012.2
20260510163505 73 185 0.0 7.0 0.00 0.14 0.00 59 1012.2
20260510163015 73 232 0.0 7.0 0.00 0.14 0.00 63 1012.4
20260510162506 72 162 0.0 3.0 0.00 0.14 0.00 64 1012.4
20260510162007 71 278 0.0 3.0 0.00 0.15 0.00 67 1012.5
20260510161523 71 169 0.0 3.0 0.00 0.15 0.00 69 1012.6
20260510161009 70 168 0.0 6.0 0.00 0.15 0.00 66 1012.5
20260510160504 70 176 0.0 9.0 0.00 0.15 0.00 68 1012.6
20260510160028 69 110 2.0 9.0 0.00 0.15 0.00 69 1012.7
20260510155504 68 117 0.0 5.0 0.00 0.15 0.00 73 1012.6
20260510155007 67 172 1.0 13.0 0.00 0.15 0.00 72 1012.5
20260510154508 66 134 3.0 13.0 0.00 0.15 0.00 73 1012.8
20260510154005 66 184 0.0 1.0 0.00 0.15 0.00 76 1012.9
20260510153503 65 175 0.0 4.0 0.00 0.16 0.00 75 1012.9
20260510153013 66 181 1.0 4.0 0.00 0.16 0.00 72 1013.0
20260510152503 66 220 0.0 6.0 0.00 0.16 0.00 73 1013.0
20260510152006 66 162 1.0 6.0 0.00 0.16 0.00 74 1012.9
20260510151524 66 172 0.0 4.0 0.00 0.17 0.00 75 1012.9
20260510151004 65 260 0.0 4.0 0.00 0.17 0.00 74 1012.9
20260510150507 64 143 0.0 4.0 0.00 0.17 0.00 77 1012.9
20260510150021 64 197 0.0 5.0 0.00 0.17 0.00 78 1013.0
20260510145510 63 243 0.0 5.0 0.00 0.17 0.00 83 1013.0
20260510145006 62 246 1.0 5.0 0.00 0.17 0.00 81 1013.0
20260510144522 62 178 0.0 5.0 0.00 0.17 0.00 80 1013.1
20260510144008 61 215 0.0 5.0 0.00 0.17 0.00 82 1013.1
20260510143511 61 127 0.0 5.0 0.00 0.18 0.00 83 1013.1
20260510143011 60 164 0.0 3.0 0.00 0.18 0.00 84 1013.1
20260510142504 60 131 0.0 0.0 0.00 0.18 0.00 86 1013.1
20260510142006 59 131 0.0 0.0 0.00 0.18 0.00 86 1013.1
20260510141514 59 131 0.0 0.0 0.00 0.18 0.00 86 1013.1
20260510141005 59 131 0.0 3.0 0.00 0.19 0.00 87 1013.0
20260510140505 59 131 0.0 3.0 0.00 0.19 0.00 86 1013.1
20260510140018 58 179 0.0 0.0 0.00 0.19 0.00 88 1013.1
20260510135507 58 187 0.0 2.0 0.00 0.19 0.00 87 1013.1
20260510135008 58 187 0.0 4.0 0.00 0.20 0.00 88 1013.1
20260510134525 57 155 0.0 4.0 0.00 0.20 0.00 88 1013.0
20260510134007 57 165 0.0 4.0 0.00 0.20 0.00 90 1013.0
20260510133506 56 159 0.0 4.0 0.00 0.20 0.00 91 1013.0
20260510133023 56 180 0.0 5.0 0.00 0.21 0.00 91 1013.0
20260510132508 56 171 0.0 5.0 0.00 0.21 0.00 91 1013.0
20260510132011 55 143 0.0 2.0 0.00 0.21 0.00 92 1013.0
20260510131520 55 154 0.0 2.0 0.00 0.21 0.00 92 1013.1
20260510131004 55 187 0.0 2.0 0.00 0.21 0.00 92 1013.1
20260510130505 55 184 0.0 4.0 0.00 0.21 0.00 93 1013.1
20260510130017 55 172 0.0 4.0 0.00 0.21 0.00 93 1013.0
20260510125508 55 154 0.0 2.0 0.00 0.21 0.00 94 1013.1
20260510125006 54 126 0.0 3.0 0.00 0.21 0.00 94 1013.1
20260510124519 54 184 0.0 3.0 0.00 0.21 0.00 95 1013.1
20260510124008 54 144 0.0 3.0 0.00 0.21 0.00 95 1013.1
20260510123510 54 217 0.0 3.0 0.00 0.21 0.00 95 1013.1
20260510123026 54 131 0.0 0.0 0.00 0.21 0.00 96 1012.9
20260510122506 54 188 0.0 0.0 0.00 0.21 0.00 96 1013.0
20260510122010 54 197 0.0 0.0 0.00 0.21 0.00 96 1013.1
20260510121523 53 197 0.0 0.0 0.00 0.21 0.00 97 1013.0
20260510121006 53 160 0.0 0.0 0.00 0.21 0.00 97 1013.0
20260510120509 53 160 0.0 0.0 0.00 0.21 0.00 97 1013.0
20260510120023 53 155 0.0 1.0 0.00 0.21 0.00 97 1012.9
20260510115503 53 155 0.0 2.0 0.00 0.21 0.00 97 1012.9
20260510115010 52 186 0.0 2.0 0.00 0.21 0.00 97 1012.9
20260510114520 52 191 0.0 2.0 0.00 0.21 0.00 97 1012.8
20260510114007 52 195 0.0 2.0 0.00 0.21 0.00 97 1012.9
20260510113509 52 189 0.0 0.0 0.00 0.21 0.00 97 1012.9
20260510113032 51 189 0.0 0.0 0.00 0.21 0.00 97 1012.8
20260510112508 51 189 0.0 0.0 0.00 0.21 0.00 97 1012.9
20260510112011 51 189 0.0 0.0 0.00 0.21 0.00 97 1012.9
20260510111531 51 189 0.0 0.0 0.00 0.21 0.00 97 1013.0
20260510111011 51 189 0.0 0.0 0.00 0.21 0.00 97 1013.0
20260510110508 51 189 0.0 0.0 0.00 0.21 0.00 97 1012.7
20260510110034 51 187 0.0 0.0 0.00 0.21 0.00 97 1012.5
20260510105507 51 188 0.0 0.0 0.00 0.21 0.00 97 1012.5
20260510105009 51 147 0.0 0.0 0.00 0.21 0.00 97 1012.4
20260510104528 51 148 0.0 0.0 0.00 0.21 0.00 97 1012.5
20260510104010 51 148 0.0 3.0 0.00 0.21 0.00 97 1012.4
20260510103506 51 124 0.0 3.0 0.00 0.21 0.00 97 1012.4
20260510103022 50 188 0.0 4.0 0.00 0.21 0.00 97 1012.2
20260510102507 50 185 0.0 4.0 0.00 0.21 0.00 96 1011.9
20260510102007 50 194 0.0 0.0 0.00 0.21 0.00 97 1011.9
20260510101523 50 194 0.0 0.0 0.00 0.21 0.00 97 1012.1
20260510101008 50 194 0.0 0.0 0.00 0.21 0.00 96 1012.0
20260510100511 50 194 0.0 0.0 0.00 0.21 0.00 97 1012.1
20260510100033 50 194 0.0 1.0 0.00 0.21 0.00 97 1012.2
20260510095508 50 194 0.0 1.0 0.00 0.21 0.00 97 1012.1
20260510095008 50 193 0.0 0.0 0.00 0.21 0.00 97 1012.1
20260510094532 50 162 0.0 2.0 0.00 0.21 0.00 96 1012.0
20260510094009 50 134 0.0 2.0 0.00 0.21 0.00 96 1012.0
20260510093512 49 38 0.0 0.0 0.00 0.21 0.00 96 1012.0
20260510093027 49 37 0.0 0.0 0.00 0.21 0.00 96 1012.1
20260510092508 49 37 0.0 0.0 0.00 0.21 0.00 96 1012.0
20260510092012 49 37 0.0 0.0 0.00 0.21 0.00 96 1012.1
20260510091523 49 37 0.0 0.0 0.00 0.21 0.00 96 1012.0
20260510091006 49 37 0.0 0.0 0.00 0.21 0.00 96 1011.9
20260510090509 49 37 0.0 0.0 0.00 0.21 0.00 96 1012.0
20260510090004 49 37 0.0 0.0 0.00 0.21 0.00 96 1012.0
20260510085504 49 37 0.0 0.0 0.00 0.21 0.00 97 1012.0
20260510085003 49 37 0.0 0.0 0.00 0.21 0.00 96 1012.1
20260510084507 49 37 0.0 0.0 0.00 0.21 0.00 96 1012.2
20260510084004 49 37 0.0 0.0 0.00 0.21 0.00 96 1012.2
20260510083504 49 37 0.0 0.0 0.00 0.21 0.00 96 1012.1
20260510083017 49 37 0.0 0.0 0.00 0.21 0.00 96 1012.1
20260510082504 49 37 0.0 0.0 0.00 0.21 0.00 96 1012.1
20260510082008 49 37 0.0 0.0 0.00 0.21 0.00 96 1012.1
20260510081517 49 27 0.0 0.0 0.00 0.21 0.00 96 1012.2
20260510081010 48 323 0.0 0.0 0.00 0.21 0.00 96 1012.1
20260510080508 48 323 0.0 0.0 0.00 0.21 0.00 96 1012.1
20260510080022 48 323 0.0 0.0 0.00 0.21 0.00 96 1012.1
20260510075509 48 323 0.0 0.0 0.00 0.21 0.00 96 1012.0
20260510075009 48 323 0.0 0.0 0.00 0.21 0.00 96 1012.1
20260510074535 48 323 0.0 0.0 0.00 0.21 0.00 96 1012.2
20260510074006 48 323 0.0 0.0 0.00 0.21 0.00 96 1012.2
20260510073505 48 323 0.0 0.0 0.00 0.21 0.00 96 1012.1
20260510073010 47 323 0.0 0.0 0.00 0.21 0.00 96 1011.9
20260510072504 47 323 0.0 0.0 0.00 0.21 0.00 96 1011.8
20260510072005 47 323 0.0 0.0 0.00 0.21 0.00 95 1011.7
20260510071519 47 323 0.0 0.0 0.00 0.21 0.00 95 1011.6
20260510071004 48 323 0.0 0.0 0.00 0.21 0.00 95 1011.5
20260510070507 48 323 0.0 0.0 0.00 0.21 0.00 95 1011.6
20260510070020 48 323 0.0 0.0 0.00 0.21 0.00 95 1011.5
20260510065507 48 323 0.0 0.0 0.00 0.21 0.00 95 1011.7
20260510065007 48 323 0.0 0.0 0.00 0.21 0.00 95 1011.7
20260510064521 48 323 0.0 0.0 0.00 0.21 0.00 95 1011.7
20260510064007 48 323 0.0 0.0 0.00 0.21 0.00 95 1011.7
20260510063509 49 323 0.0 0.0 0.00 0.21 0.00 96 1011.8
20260510063025 49 323 0.0 0.0 0.00 0.21 0.00 96 1011.7
20260510062510 49 323 0.0 0.0 0.00 0.21 0.00 96 1011.7
20260510062004 49 323 0.0 0.0 0.00 0.21 0.00 96 1011.7
20260510061515 49 323 0.0 1.0 0.00 0.21 0.00 96 1011.9
20260510061004 49 323 0.0 1.0 0.00 0.21 0.00 96 1012.0
20260510060506 49 324 0.0 0.0 0.00 0.21 0.00 96 1011.9
20260510060017 49 324 0.0 0.0 0.00 0.21 0.00 96 1011.8
20260510055510 49 324 0.0 0.0 0.00 0.21 0.00 96 1011.9
20260510055007 49 324 0.0 0.0 0.00 0.21 0.00 96 1011.9
20260510054520 49 324 0.0 0.0 0.00 0.21 0.00 96 1011.9
20260510054008 49 324 0.0 0.0 0.00 0.21 0.00 96 1012.0
20260510053510 49 324 0.0 0.0 0.00 0.21 0.00 96 1012.1
20260510053024 49 324 0.0 0.0 0.00 0.21 0.00 96 1012.2
20260510052510 49 324 0.0 0.0 0.00 0.21 0.00 96 1012.2
20260510052007 49 324 0.0 0.0 0.00 0.21 0.00 96 1012.4
20260510051528 49 324 0.0 0.0 0.00 0.21 0.00 96 1012.5
20260510051009 49 324 0.0 0.0 0.00 0.21 0.00 96 1012.4
20260510050508 49 324 0.0 0.0 0.00 0.21 0.00 96 1012.3
20260510050016 49 324 0.0 0.0 0.00 0.21 0.00 96 1012.4
20260510045507 49 324 0.0 0.0 0.00 0.21 0.00 96 1012.3
20260510045007 49 324 0.0 0.0 0.00 0.21 0.00 96 1012.4
20260510044518 49 324 0.0 0.0 0.00 0.21 0.00 96 1012.5
20260510044006 49 324 0.0 0.0 0.00 0.21 0.00 96 1012.5
20260510043507 49 324 0.0 0.0 0.00 0.21 0.00 96 1012.5
20260510043022 49 324 0.0 0.0 0.00 0.21 0.00 96 1012.5
20260510042510 49 324 0.0 0.0 0.00 0.21 0.00 96 1012.4
20260510042011 49 324 0.0 0.0 0.00 0.21 0.00 96 1012.4
20260510041532 49 324 0.0 0.0 0.00 0.21 0.00 96 1012.4
20260510041007 49 324 0.0 0.0 0.00 0.21 0.00 96 1012.5
20260510040508 49 324 0.0 0.0 0.00 0.21 0.00 96 1012.4
20260510040028 49 324 0.0 0.0 0.00 0.21 0.00 96 1012.4
20260510035510 49 324 0.0 0.0 0.00 0.21 0.21 96 1012.4
20260510035011 49 324 0.0 0.0 0.00 0.21 0.21 96 1012.7
20260510034516 49 324 0.0 0.0 0.00 0.21 0.21 96 1012.8
20260510034006 49 324 0.0 0.0 0.00 0.21 0.21 96 1012.7
20260510033507 49 324 0.0 0.0 0.00 0.21 0.21 96 1012.8
20260510033027 49 324 0.0 0.0 0.00 0.21 0.21 96 1012.7
20260510032507 49 324 0.0 0.0 0.00 0.21 0.21 96 1012.6
20260510032010 49 324 0.0 0.0 0.00 0.21 0.21 96 1012.8
20260510031529 49 324 0.0 0.0 0.00 0.21 0.21 96 1012.7
20260510031011 49 324 0.0 0.0 0.00 0.21 0.21 96 1012.9
20260510030508 49 324 0.0 0.0 0.00 0.21 0.21 96 1012.9
20260510025509 49 324 0.0 0.0 0.00 0.21 0.21 96 1013.1
20260510025007 49 324 0.0 0.0 0.00 0.21 0.21 96 1013.2
20260510024527 48 324 0.0 0.0 0.00 0.21 0.21 95 1013.2
20260510024010 48 324 0.0 0.0 0.00 0.21 0.21 96 1013.2
20260510023507 49 324 0.0 0.0 0.00 0.21 0.21 95 1013.1
20260510023003 48 324 0.0 0.0 0.00 0.21 0.21 95 1013.1
20260510022506 48 324 0.0 0.0 0.00 0.21 0.21 95 1013.1
20260510022002 48 324 0.0 0.0 0.00 0.21 0.21 96 1013.2
20260510021504 48 324 0.0 0.0 0.00 0.21 0.21 96 1013.2
20260510021002 48 324 0.0 0.0 0.00 0.21 0.21 95 1013.2
20260510020504 48 324 0.0 0.0 0.00 0.21 0.21 95 1013.3
20260510020007 48 324 0.0 0.0 0.00 0.21 0.21 95 1013.3
20260510015504 48 324 0.0 0.0 0.01 0.21 0.21 95 1013.4
20260510015005 48 324 0.0 0.0 0.01 0.21 0.21 95 1013.4
20260510014511 48 324 0.0 0.0 0.01 0.21 0.21 95 1013.3
20260510014003 48 324 0.0 0.0 0.01 0.21 0.21 95 1013.2
20260510013502 48 324 0.0 0.0 0.01 0.21 0.21 95 1013.2
20260510013014 48 324 0.0 0.0 0.01 0.21 0.21 95 1013.2
20260510012506 48 324 0.0 0.0 0.01 0.21 0.21 95 1013.2
20260510012004 48 324 0.0 0.0 0.01 0.21 0.21 95 1013.2
20260510011503 48 324 0.0 0.0 0.01 0.21 0.21 95 1013.2
20260510011002 48 324 0.0 0.0 0.01 0.21 0.21 95 1013.2
20260510010503 48 324 0.0 1.0 0.01 0.21 0.21 95 1013.3
20260510010003 48 324 0.0 1.0 0.01 0.21 0.21 95 1013.3
20260510005503 48 213 0.0 0.0 0.00 0.20 0.20 95 1013.3
20260510005005 48 213 0.0 0.0 0.00 0.20 0.20 95 1013.1
20260510004505 48 199 0.0 0.0 0.00 0.20 0.20 95 1013.0
20260510004006 48 199 0.0 0.0 0.00 0.20 0.20 95 1013.0
20260510003505 48 199 0.0 0.0 0.00 0.20 0.20 95 1012.9
20260510003012 48 199 0.0 0.0 0.00 0.20 0.20 95 1013.0
20260510002504 48 198 0.0 0.0 0.00 0.20 0.20 95 1013.1
20260510002007 48 198 0.0 0.0 0.00 0.20 0.20 95 1013.2
20260510001521 48 198 0.0 0.0 0.00 0.20 0.20 95 1013.2
20260510001004 48 198 0.0 0.0 0.01 0.20 0.20 95 1013.2
20260510000508 48 198 0.0 6.0 0.01 0.20 0.20 95 1013.3
20260510000001 48 198 0.0 6.0 0.01 0.20 0.20 95 1013.3
20260509235504 48 155 0.0 0.0 0.02 0.20 0.20 95 1013.2
20260509235003 48 153 0.0 0.0 0.02 0.20 0.20 94 1013.1
20260509234511 48 153 0.0 0.0 0.02 0.20 0.20 94 1013.1
20260509234005 48 153 0.0 0.0 0.03 0.20 0.20 94 1013.1
20260509233504 48 153 0.0 0.0 0.03 0.20 0.20 94 1013.1
20260509233007 48 153 0.0 0.0 0.03 0.20 0.20 94 1013.1
20260509232504 48 153 0.0 0.0 0.03 0.20 0.20 94 1013.0
20260509232006 49 41 0.0 0.0 0.04 0.20 0.20 94 1012.9
20260509231528 49 41 0.0 0.0 0.04 0.20 0.20 94 1012.8
20260509231003 49 41 0.0 0.0 0.03 0.19 0.19 94 1012.9
20260509230504 49 41 0.0 0.0 0.03 0.19 0.19 94 1012.9
20260509230020 49 41 0.0 0.0 0.03 0.19 0.19 94 1012.9
20260509225505 49 41 0.0 0.0 0.02 0.18 0.18 94 1012.9
20260509225009 49 41 0.0 0.0 0.02 0.18 0.18 94 1012.7
20260509224525 49 41 0.0 0.0 0.03 0.18 0.18 94 1012.8